COSMOS 1275 DEB, 12727

Orbit data source: Space-Track

COSMOS 1275 DEB, 12727 is space debris in LEO originally from a launch on Thu, 04 Jun 1981 UTC launched from the Plesetsk Missile And Space Complex (PKMTR). Debris objects in space refer to the collection of defunct objects orbiting the Earth. Examples of debris include non-operational satellites, rocket bodies, and fragments generated from explosions, collisions, or faulty payload assembly.

Loading next visibility...
Identifier
12727, 1981-053BU
Orbit
LEO
Country
Flag of CISCIS
Related business
Manufacturer
Unknown
Mission
Spacecraft
Bus & Motor
Unknown
Mass
Unknown
Launch date (UTC)
1981-06-04 (45 years ago)
Launch vehicle
Unknown
Launch site
Plesetsk Missile And Space Complex (PKMTR)
Object type
Payload
Rocket body
Debris
Shape & HBR
Unknown shape, 0.2 m
Radar Cross Section
Medium (>0.1 m² and <1 m²)

Expand to show TLE details & history
Last TLE update: 2 days ago

TLE from 2 days ago
0 COSMOS 1275 DEB
1 12727U 81053BU  26171.04479705  .00000636  00000-0  45296-3 0  9993
2 12727  83.2876  13.3856 0089972  97.0940  55.9709 13.93993216258674
Epoch: 2026-06-20T01:04Z
TLE epoch observation values (Epoch: 2026-06-20T01:04:30.465Z)
Latitude
25.91591°
Longitude
-94.26759°
Altitude
881.523 km
Speed
7.432 km/s
True Right ascension
12h 40m 29s
True Declination
25° 46' 60"
Sunlit
Object was in daylight at epoch
Visualization orbit readout
Latitude
Unknown
Longitude
Unknown
Altitude
Unknown
Speed
Unknown
Apparent Right ascension
Unknown
Apparent Declination
Unknown
Sunlit
N/A
Visualization observer readout
Local Sidereal Time
08:00:12
Azimuth
Unknown
Elevation
Unknown
Doppler factor
Unknown
Orbital elements
Apogee altitude
977.368 km
Perigee altitude
846.191 km
Semi-major axis
7,289.916 km
Eccentricity
0.009
Inclination
83.2876°
RAAN
13.3856°
Arg. of periapsis
97.094°
True anomaly
56.83073°
Mean anomaly
55.9709°
Eccentric anomaly
56.40027°
Mean motion
3.48706 °/min
Orbital period
103.24 mins
BSTAR
0.00045296
Loading maneuver chart data...
Computing Atmospheric mass density...
Loading historical data...
Loading historical data...
Loading historical data...
Loading historical data...
Loading historical data...
Loading historical data...
Loading historical data...

Documentation

Showing up to 5 results
|